NI4CE-10 Weather Reports


time (UTC)temp
F
wind
direction
speed
knots
gust
knots
rain 1hr
in
rain 24hr
in
rain mn
in
humidity
%
barometer
mb
20260503184809 75 66 7.8 10.4 0.00 1.34 0.60 100 1019.1
20260503184559 75 66 7.8 10.4 0.00 1.34 0.60 100 1019.1
20260503184059 74 120 5.2 12.2 0.00 1.34 0.60 100 1019.2
20260503184003 74 28 9.6 10.4 0.00 1.34 0.60 100 1019.3
20260503183559 74 28 9.6 10.4 0.00 1.34 0.60 100 1019.3
20260503183433 73 90 7.8 12.2 0.00 1.34 0.60 100 1019.4
20260503183059 73 90 7.8 12.2 0.00 1.34 0.60 100 1019.4
20260503182559 74 49 4.3 10.4 0.00 1.34 0.60 100 1019.4
20260503182212 73 73 6.1 9.6 0.00 1.34 0.60 100 1019.4
20260503182059 73 73 6.1 9.6 0.00 1.34 0.60 100 1019.4
20260503181559 73 66 5.2 10.4 0.00 1.34 0.60 100 1019.4
20260503181059 73 99 4.3 7.8 0.00 1.34 0.60 100 1019.4
20260503180739 72 116 7.0 13.0 0.00 1.34 0.60 100 1019.5
20260503180559 72 116 7.0 13.0 0.00 1.34 0.60 100 1019.5
20260503180059 73 64 10.4 10.4 0.00 1.34 0.60 100 1019.5
20260503175559 72 71 5.2 8.7 0.00 1.34 0.60 100 1019.6
20260503175059 72 49 4.3 9.6 0.00 1.34 0.60 100 1019.6
20260503174825 72 82 0.9 7.0 0.00 1.34 0.60 100 1019.8
20260503174559 72 74 6.1 8.7 0.00 1.34 0.60 100 1019.7
20260503174059 71 81 6.1 11.3 0.00 1.34 0.60 100 1019.8
20260503173631 72 82 0.9 7.0 0.00 1.34 0.60 100 1019.8
20260503173559 72 67 5.2 9.6 0.00 1.34 0.60 100 1019.8
20260503173059 72 82 0.9 7.0 0.00 1.34 0.60 100 1019.8
20260503172940 71 59 4.3 10.4 0.00 1.34 0.60 100 1019.8
20260503172819 71 90 4.3 10.4 0.00 1.34 0.60 100 1019.8
20260503172559 71 59 4.3 10.4 0.00 1.34 0.60 100 1019.8
20260503172525 71 90 4.3 10.4 0.00 1.34 0.60 100 1019.8
20260503172059 71 90 4.3 10.4 0.00 1.34 0.60 100 1019.8
20260503172013 71 78 6.1 9.6 0.00 1.34 0.60 100 1019.8
20260503171835 71 78 6.1 9.6 0.00 1.34 0.60 100 1019.8
20260503171559 71 78 6.1 9.6 0.00 1.34 0.60 100 1019.8
20260503171439 70 42 3.5 9.6 0.00 1.34 0.60 100 1020.0
20260503171059 70 42 3.5 9.6 0.00 1.34 0.60 100 1020.0
20260503170559 70 70 3.5 7.8 0.00 1.34 0.60 100 1020.0
20260503150600 69 78 6.1 13.9 0.00 1.34 0.60 100 1020.1
20260503150514 69 74 4.3 12.2 0.00 1.34 0.60 100 1020.0
20260503131100 67 15 6.1 7.0 0.00 1.34 0.60 100 1019.3
20260503130600 66 39 2.6 7.0 0.00 1.34 0.60 100 1019.2
20260503110601 66 28 1.7 7.0 0.00 1.34 0.60 100 1017.9
20260503100206 66 54 2.6 7.8 0.00 1.34 0.60 100 1017.3
20260503081622 68 49 1.7 10.4 0.09 1.34 0.60 100 1016.3
20260503081601 68 4 6.1 12.2 0.04 1.34 0.60 100 1016.6
20260503081345 68 49 1.7 10.4 0.09 1.34 0.60 100 1016.3
20260503081101 68 49 1.7 10.4 0.09 1.34 0.60 100 1016.3
20260503081025 68 36 6.1 10.4 0.12 1.34 0.60 100 1016.0
20260503080601 68 36 6.1 10.4 0.12 1.34 0.60 100 1016.0
20260503080554 69 16 3.5 10.4 0.19 1.34 0.60 100 1016.0
20260503072602 69 347 5.2 7.8 0.44 1.33 0.59 100 1016.1
20260503072102 69 355 4.3 8.7 0.46 1.33 0.59 100 1016.4
20260503071602 69 345 6.1 10.4 0.45 1.30 0.56 100 1016.4
20260503071514 69 358 2.6 7.0 0.45 1.25 0.51 100 1016.4
20260503071136 69 358 2.6 7.0 0.45 1.25 0.51 100 1016.4
20260503071102 69 358 2.6 7.0 0.45 1.25 0.51 100 1016.4
20260503070819 70 348 6.1 7.0 0.44 1.22 0.48 100 1016.5
20260503070602 70 348 6.1 7.0 0.44 1.22 0.48 100 1016.5
20260503055102 71 268 0.0 0.0 0.00 0.74 0.00 100 1016.6
20260503054602 71 268 0.0 0.0 0.00 0.74 0.00 100 1016.7
20260503054442 71 268 0.0 3.5 0.00 0.74 0.00 100 1016.7
20260503054135 71 268 0.0 3.5 0.00 0.74 0.00 100 1016.7
20260503054102 71 268 0.0 3.5 0.00 0.74 0.00 100 1016.7
20260503053614 70 157 0.0 0.0 0.00 0.74 0.00 100 1016.6
20260503053602 70 237 0.0 0.9 0.00 0.74 0.00 100 1016.8
20260503053102 70 157 0.0 0.0 0.00 0.74 0.00 100 1016.6
20260503052602 70 157 0.0 0.0 0.00 0.74 0.00 100 1016.5
20260503052102 70 157 0.0 0.9 0.00 0.74 0.00 100 1016.3
20260503051602 70 157 0.9 1.7 0.00 0.74 0.00 100 1016.5
20260503051515 70 217 0.0 2.6 0.00 0.74 0.00 100 1016.7
20260503051102 70 217 0.0 2.6 0.00 0.74 0.00 100 1016.7
20260503050602 70 194 0.9 2.6 0.00 0.74 0.00 100 1016.9
20260503045757 70 217 1.7 4.3 0.00 0.74 0.74 100 1016.7
20260503045604 70 217 3.5 4.3 0.00 0.74 0.74 100 1016.8
20260503045602 70 241 1.7 5.2 0.00 0.74 0.74 100 1016.8
20260503045102 70 217 3.5 4.3 0.00 0.74 0.74 100 1016.8
20260503044602 70 217 1.7 4.3 0.00 0.74 0.74 100 1016.7
20260503044532 70 213 0.9 2.6 0.00 0.74 0.74 100 1016.9
20260503044102 70 213 0.9 2.6 0.00 0.74 0.74 100 1016.9
20260503043602 70 223 2.6 3.5 0.00 0.74 0.74 100 1017.0
20260503043416 70 140 0.9 4.3 0.00 0.74 0.74 100 1016.9
20260503043102 70 140 0.9 4.3 0.00 0.74 0.74 100 1016.9
20260503042602 70 220 3.5 5.2 0.00 0.74 0.74 100 1017.0
20260503042102 70 210 3.5 5.2 0.00 0.74 0.74 100 1016.9
20260503041602 70 170 0.9 4.3 0.00 0.74 0.74 100 1016.8
20260503041339 70 216 2.6 3.5 0.00 0.74 0.74 100 1016.9
20260503041102 70 216 2.6 3.5 0.00 0.74 0.74 100 1016.9
20260503040602 70 227 0.0 1.7 0.00 0.74 0.74 100 1017.0
20260503035801 70 230 0.0 0.0 0.00 0.74 0.74 100 1016.6
20260503035640 70 230 0.0 0.0 0.00 0.74 0.74 100 1016.6
20260503035602 70 230 0.0 0.0 0.00 0.74 0.74 100 1016.9
20260503035102 70 230 0.0 0.0 0.00 0.74 0.74 100 1016.6
20260503035002 69 230 0.0 0.0 0.00 0.74 0.74 100 1016.5
20260503034839 69 230 0.0 0.0 0.00 0.74 0.74 100 1016.5
20260503034602 69 230 0.0 0.0 0.00 0.74 0.74 100 1016.5
20260503034524 70 230 0.0 0.0 0.00 0.74 0.74 100 1016.3
20260503034102 70 230 0.0 0.0 0.00 0.74 0.74 100 1016.3
20260503033603 70 230 0.0 0.0 0.00 0.74 0.74 100 1016.3
20260503033102 70 230 0.0 0.0 0.00 0.74 0.74 100 1016.3
20260503033010 70 230 0.0 0.9 0.00 0.74 0.74 100 1016.1
20260503032603 70 230 0.0 0.0 0.00 0.74 0.74 100 1016.2
20260503032103 70 230 0.0 0.9 0.00 0.74 0.74 100 1016.1
20260503031630 70 215 0.0 0.0 0.00 0.74 0.74 100 1015.4
20260503031603 70 205 0.0 3.5 0.00 0.74 0.74 100 1015.9
20260503031103 70 194 0.0 0.9 0.00 0.74 0.74 100 1015.7
20260503030603 70 215 0.0 0.0 0.00 0.74 0.74 100 1015.4
20260503025603 70 215 0.0 0.9 0.00 0.74 0.74 100 1015.5
20260503025528 70 202 0.9 4.3 0.00 0.74 0.74 100 1016.0
20260503025103 70 202 0.9 4.3 0.00 0.74 0.74 100 1016.0
20260503024732 70 198 0.9 2.6 0.00 0.74 0.74 100 1015.9
20260503024603 70 258 1.7 3.5 0.00 0.74 0.74 100 1016.2
20260503024103 70 198 0.9 2.6 0.00 0.74 0.74 100 1015.9
20260503023717 70 229 0.0 0.0 0.00 0.74 0.74 100 1015.7
20260503023603 70 229 0.0 0.0 0.00 0.74 0.74 100 1015.8
20260503023103 70 229 0.0 0.0 0.00 0.74 0.74 100 1015.7
20260503022603 70 229 0.0 0.0 0.00 0.74 0.74 100 1015.7
20260503022103 70 229 0.0 0.0 0.00 0.74 0.74 100 1015.9
20260503021603 70 229 0.0 0.0 0.00 0.74 0.74 100 1015.9
20260503021152 70 243 2.6 4.3 0.00 0.74 0.74 100 1016.0
20260503021103 70 229 0.0 2.6 0.00 0.74 0.74 100 1016.0
20260503020603 70 237 0.0 5.2 0.00 0.74 0.74 100 1015.9
20260503015603 70 225 1.7 3.5 0.00 0.74 0.74 100 1016.0
20260503015103 70 248 1.7 3.5 0.00 0.74 0.74 100 1016.0
20260503014731 70 257 0.0 4.3 0.00 0.74 0.74 100 1016.0
20260503014603 69 192 0.0 4.3 0.00 0.74 0.74 100 1016.0
20260503014150 70 257 0.0 4.3 0.00 0.74 0.74 100 1016.0
20260503014103 70 257 0.0 4.3 0.00 0.74 0.74 100 1016.0
20260503013603 69 201 0.0 4.3 0.01 0.74 0.74 100 1015.7
20260503013521 69 246 2.6 3.5 0.01 0.74 0.74 100 1015.6
20260503013103 69 246 2.6 3.5 0.01 0.74 0.74 100 1015.6
20260503012603 69 40 0.0 0.0 0.01 0.74 0.74 100 1014.9
20260503012254 69 106 0.0 0.0 0.01 0.74 0.74 100 1015.0
20260503012103 69 106 0.0 0.0 0.01 0.74 0.74 100 1014.7
20260503011603 69 106 0.0 0.0 0.01 0.74 0.74 100 1014.7
20260503011104 69 106 0.0 0.0 0.01 0.74 0.74 100 1015.0
20260503010754 70 289 0.0 1.7 0.00 0.73 0.73 100 1014.5
20260503010603 69 106 0.0 1.7 0.01 0.74 0.74 100 1014.7
20260503010103 69 156 1.7 2.6 0.01 0.74 0.74 100 1014.8
20260503005603 69 202 0.0 3.5 0.01 0.74 0.74 100 1015.1
20260503005103 70 268 0.0 0.0 0.01 0.74 0.74 100 1015.1
20260503004603 70 268 0.0 1.7 0.01 0.74 0.74 100 1014.6
20260503004103 70 254 1.7 2.6 0.01 0.74 0.74 100 1014.7
20260503003603 70 289 0.0 1.7 0.00 0.73 0.73 100 1014.5
20260503003442 70 192 0.0 5.2 0.01 0.73 0.73 100 1014.1
20260503003103 69 216 0.0 0.0 0.01 0.73 0.73 100 1013.7
20260503002603 70 192 0.0 5.2 0.01 0.73 0.73 100 1014.1
20260503002133 70 202 4.3 7.0 0.01 0.73 0.73 100 1014.8
20260503002103 70 180 0.0 5.2 0.01 0.73 0.73 100 1014.4
20260503001603 70 202 4.3 7.0 0.01 0.73 0.73 100 1014.8
20260503001548 69 188 3.5 7.0 0.01 0.73 0.73 100 1012.9
20260503001103 70 250 5.2 8.7 0.01 0.73 0.73 100 1014.8
20260503000603 70 210 6.1 7.8 0.01 0.73 0.73 100 1014.4
20260503000103 70 237 5.2 6.1 0.01 0.73 0.73 100 1013.9
20260502235603 69 188 3.5 7.0 0.01 0.73 0.73 100 1012.9
20260502235455 70 182 1.7 3.5 0.01 0.73 0.73 100 1013.4
20260502235103 70 188 1.7 5.2 0.01 0.73 0.73 100 1013.2
20260502234603 70 182 1.7 3.5 0.01 0.73 0.73 100 1013.4
20260502234502 70 165 0.0 0.0 0.02 0.72 0.72 100 1014.3
20260502234103 70 165 0.0 0.0 0.02 0.73 0.73 100 1013.9
20260502233603 70 165 0.0 0.0 0.02 0.73 0.73 100 1014.2
20260502233104 70 165 0.0 0.0 0.02 0.72 0.72 100 1013.8
20260502232604 70 165 0.0 0.0 0.02 0.72 0.72 100 1014.3
20260502232104 70 165 0.0 4.3 0.02 0.72 0.72 100 1014.6
20260502231604 70 154 0.0 0.0 0.03 0.72 0.72 100 1014.5
20260502231457 70 180 0.9 3.5 0.04 0.72 0.72 100 1014.2
20260502231403 70 154 0.0 0.0 0.04 0.72 0.72 100 1014.2
20260502231104 70 154 0.0 0.0 0.04 0.72 0.72 100 1014.2
20260502230604 70 154 0.0 3.5 0.04 0.72 0.72 100 1014.0
20260502230104 70 180 0.9 3.5 0.04 0.72 0.72 100 1014.2
20260502225604 70 187 2.6 3.5 0.05 0.72 0.72 100 1014.3
20260502225104 71 144 0.9 4.3 0.05 0.72 0.72 100 1014.2
20260502224604 71 195 1.7 5.2 0.05 0.72 0.72 100 1014.6
20260502224104 71 232 1.7 1.7 0.04 0.71 0.71 100 1014.1
20260502223627 71 180 0.0 0.0 0.03 0.70 0.70 100 1013.8
20260502223604 71 130 0.0 2.6 0.04 0.71 0.71 100 1014.0
20260502223104 71 180 0.0 0.0 0.03 0.70 0.70 100 1014.1
20260502222604 71 180 0.0 0.0 0.03 0.70 0.70 100 1013.8
20260502222232 71 180 0.0 0.0 0.07 0.70 0.70 100 1014.2
20260502222104 71 180 0.0 0.0 0.07 0.70 0.70 100 1014.2
20260502221604 71 180 0.0 0.0 0.07 0.69 0.69 100 1014.3
20260502221104 71 180 0.0 0.0 0.08 0.68 0.68 100 1013.8
20260502220604 71 180 0.0 0.0 0.09 0.68 0.68 100 1014.0
20260502220104 70 180 0.0 0.0 0.12 0.68 0.68 100 1014.2
20260502215604 71 180 0.0 2.6 0.15 0.67 0.67 100 1014.0
20260502215104 70 175 2.6 4.3 0.36 0.67 0.67 100 1014.2
20260502214715 70 156 1.7 4.3 0.61 0.67 0.67 100 1014.1
20260502214713 71 84 3.5 4.3 0.67 0.67 0.67 100 1013.7
20260502214604 70 156 1.7 4.3 0.61 0.67 0.67 100 1014.1
20260502214501 71 84 3.5 4.3 0.67 0.67 0.67 100 1013.7
20260502214104 71 84 3.5 4.3 0.67 0.67 0.67 100 1013.7
20260502213629 70 172 0.0 0.0 0.67 0.67 0.67 100 1014.3
20260502213604 70 172 0.0 0.0 0.67 0.67 0.67 100 1014.1
20260502213104 70 172 0.0 0.0 0.67 0.67 0.67 100 1014.3
20260502212604 70 172 0.0 0.0 0.67 0.67 0.67 100 1014.4
20260502212104 70 172 0.0 0.0 0.63 0.63 0.63 100 1014.3
20260502211604 70 172 0.0 3.5 0.62 0.62 0.62 100 1014.6
20260502211316 70 229 3.5 3.5 0.60 0.60 0.60 100 1014.7
20260502211104 70 229 3.5 3.5 0.60 0.60 0.60 100 1014.7
20260502210604 70 187 0.0 2.6 0.59 0.59 0.59 100 1014.2
20260502210104 70 206 0.9 1.7 0.56 0.56 0.56 100 1014.0
20260502205604 70 174 0.0 6.1 0.52 0.52 0.52 100 1013.8
20260502205104 72 291 3.5 19.1 0.30 0.30 0.30 100 1014.2
20260502204604 76 264 9.6 17.4 0.06 0.06 0.06 100 1013.9
20260502204104 80 336 8.7 18.2 0.00 0.00 0.00 100 1013.7
20260502203604 82 12 2.6 4.3 0.00 0.00 0.00 100 1013.3
20260502203104 82 251 3.5 5.2 0.00 0.00 0.00 100 1013.2
20260502202604 83 243 1.7 6.1 0.00 0.00 0.00 100 1013.3
20260502202223 83 293 0.9 7.8 0.00 0.00 0.00 100 1013.5
20260502202104 83 282 3.5 8.7 0.00 0.00 0.00 100 1013.5
20260502201604 83 293 0.9 7.8 0.00 0.00 0.00 100 1013.5
20260502201104 83 250 5.2 9.6 0.00 0.00 0.00 100 1013.5
20260502200604 83 277 7.0 8.7 0.00 0.00 0.00 100 1013.3
20260502200104 84 253 7.8 7.8 0.00 0.00 0.00 100 1013.4
20260502195604 84 260 5.2 8.7 0.00 0.00 0.00 100 1013.3
20260502195104 85 248 6.1 9.6 0.00 0.00 0.00 100 1013.4
20260502194604 84 247 4.3 10.4 0.00 0.00 0.00 100 1013.6
20260502194105 83 272 6.1 9.6 0.00 0.00 0.00 100 1013.7
20260502193741 84 253 5.2 8.7 0.00 0.00 0.00 100 1013.8
20260502193605 84 253 5.2 8.7 0.00 0.00 0.00 100 1013.8
20260502193105 84 285 6.1 8.7 0.00 0.00 0.00 100 1013.8
20260502192605 83 312 2.6 10.4 0.00 0.00 0.00 100 1013.8
20260502192105 84 272 7.0 13.0 0.00 0.00 0.00 100 1014.0
20260502191605 84 229 5.2 11.3 0.00 0.00 0.00 100 1013.8
20260502191105 84 267 9.6 13.0 0.00 0.00 0.00 100 1013.8
20260502190605 85 260 8.7 10.4 0.00 0.00 0.00 100 1013.8
20260502190105 85 289 6.1 11.3 0.00 0.00 0.00 100 1013.8
20260502185741 85 338 4.3 9.6 0.00 0.00 0.00 100 1013.8
20260502185605 85 338 4.3 9.6 0.00 0.00 0.00 100 1013.8
20260502185105 85 257 5.2 13.9 0.00 0.00 0.00 100 1013.9